Wind_Speed
33 34 34 32 31 31 32 31 32 30 30 29 32 35 35 35 35 36 37 38 39 41 42 43 44 45 46 46 47 47 47 48 48 50 51 52 54 55 57 59 61 63 65 66
35 35 35 35 33 33 32 32 32 33 32 30 34 36 37 38 38 39 40 40 41 42 43 44 45 46 47 47 48 48 49 49 50 52 53 54 56 57 59 61 63 65 67 69
36 36 37 38 34 34 34 33 34 35 33 34 36 36 37 39 40 41 42 42 43 44 45 46 46 47 48 48 49 49 50 51 52 54 55 56 58 60 61 63 65 67 70 71
38 38 41 35 34 34 35 34 35 36 35 36 37 38 39 40 41 42 43 44 44 45 45 46 47 47 48 49 49 50 51 53 54 55 56 58 60 61 63 66 68 70 72 73
40 41 39 36 35 35 36 36 35 36 37 38 39 40 40 41 43 44 44 44 45 45 46 46 47 47 48 49 50 52 53 54 55 56 58 59 61 64 66 68 70 72 74 76
41 42 41 37 37 37 38 38 35 36 38 40 40 41 41 42 43 43 44 44 45 45 46 46 47 48 49 50 51 52 53 55 56 58 59 62 64 66 68 70 72 74 76 78
41 43 42 40 39 38 39 38 37 38 39 39 40 40 41 42 42 43 43 44 45 45 46 46 47 48 49 51 52 53 54 56 57 59 61 64 66 68 70 72 74 76 77 79
42 44 42 39 40 40 39 39 40 40 40 40 40 40 41 41 42 43 43 44 45 45 46 47 48 49 50 52 53 54 55 57 58 61 64 66 68 70 72 74 76 78 79 79
40 41 40 40 39 39 39 40 40 41 41 40 40 40 41 42 42 43 44 45 45 46 47 48 49 50 51 52 53 54 56 58 61 63 65 68 70 72 74 76 78 79 79 78
38 39 39 40 40 40 40 41 41 41 41 41 41 42 42 43 44 45 46 46 46 47 48 49 50 51 52 53 54 56 58 60 62 64 67 70 72 74 76 78 79 79 79 77
38 38 39 40 40 40 41 41 41 41 41 41 42 43 44 45 45 46 46 46 47 48 49 49 50 50 52 53 55 57 59 62 64 67 70 72 73 76 78 79 79 79 77 75
38 38 40 40 40 41 42 42 42 43 43 44 44 45 45 46 46 46 46 47 48 48 49 49 49 51 53 55 57 59 61 64 67 69 72 74 76 77 77 78 76 75 73 71
40 39 40 40 40 41 42 42 43 44 44 45 45 46 46 46 46 46 47 47 47 47 48 49 50 52 54 56 58 61 64 67 69 72 74 77 78 79 77 74 72 70 68 65
39 40 40 41 41 42 42 43 44 44 45 45 46 46 45 45 45 46 46 46 46 47 48 49 51 53 55 58 60 63 67 70 73 75 77 78 78 78 76 74 70 65 63 60
38 39 41 41 42 42 43 43 43 43 44 44 44 44 44 43 43 44 44 45 46 47 49 51 53 55 57 60 64 67 70 73 75 77 78 78 77 75 73 71 68 64 59 55
38 39 40 40 40 41 41 41 42 42 42 42 42 41 41 41 41 42 44 45 47 48 50 52 54 57 61 64 67 70 73 76 77 78 78 76 75 73 70 67 64 60 56 51
38 38 39 39 39 39 39 39 39 39 39 39 39 39 39 40 42 43 45 46 48 49 52 55 58 61 64 68 71 74 76 77 78 77 76 74 72 70 67 65 61 56 51 47
37 37 37 37 37 37 37 37 37 37 37 37 38 38 40 41 42 44 45 47 49 51 55 59 62 65 68 72 75 77 78 77 77 75 74 72 69 67 64 61 57 52 47 42
35 35 35 35 35 35 35 36 35 36 36 37 38 39 41 42 43 45 47 49 52 55 58 62 65 69 72 75 77 78 77 76 74 73 71 69 66 63 60 56 52 47 43 39
33 33 33 34 34 34 34 35 35 36 37 38 39 40 41 43 46 48 50 53 56 60 63 66 69 73 75 77 77 77 75 73 72 70 68 65 62 58 55 51 47 43 39 36
32 33 33 33 33 33 34 35 35 36 38 39 40 42 44 47 49 52 54 57 60 64 67 70 73 75 77 77 75 74 72 71 69 66 63 60 56 53 49 46 42 38 35 33
32 32 33 33 33 34 35 36 37 38 39 41 43 46 48 50 53 56 59 62 65 68 71 73 75 76 76 75 73 71 69 67 64 61 58 54 52 49 45 41 38 35 33 31
32 33 33 34 34 35 36 37 39 40 42 44 47 50 52 55 58 61 63 66 69 72 74 75 76 75 74 72 69 67 64 61 58 55 53 51 48 44 41 37 34 32 31 29
33 33 34 34 35 36 38 40 42 44 46 49 52 55 58 60 63 65 68 70 72 74 74 74 73 72 70 67 64 61 58 56 54 51 49 47 44 40 37 34 32 30 28 27
33 34 35 36 37 39 41 43 45 48 50 53 56 59 62 65 67 68 70 72 73 73 72 70 68 66 64 61 58 56 55 53 51 48 46 43 40 36 34 31 29 27 26 25
35 36 37 39 41 43 45 47 50 52 55 57 60 63 66 68 70 71 71 72 71 70 68 65 63 60 58 56 55 53 51 49 47 44 42 39 36 33 30 28 26 25 24 24
37 39 41 43 45 47 50 52 54 57 60 62 64 66 68 69 70 70 70 69 67 65 62 60 58 56 54 53 52 50 47 45 42 40 37 35 32 29 27 25 24 23 23 24
Wind_Direction
242 246 249 250 251 252 257 263 267 270 271 275 277 278 280 281 282 282 283 284 286 287 288 290 291 291 292 292 292 293 293 293 293 293 294 295 296 297 298 299 300 301 302 303
243 246 250 253 254 257 260 264 268 270 272 274 275 278 282 283 284 284 285 286 287 288 289 290 291 291 292 292 292 293 293 293 293 294 295 296 297 298 300 301 302 303 303 304
247 248 251 254 258 261 265 267 269 270 273 274 275 278 280 282 284 285 286 287 287 288 289 290 291 291 291 292 292 292 293 293 294 295 296 297 299 300 301 302 303 304 305 305
250 251 254 261 261 262 264 267 269 271 273 274 277 279 281 282 283 284 286 287 288 289 289 290 290 291 291 291 292 292 293 294 295 296 297 298 300 301 302 303 304 305 306 307
253 256 260 261 263 266 267 268 269 272 274 276 278 279 280 282 282 284 285 286 287 288 288 289 290 290 291 291 292 293 294 295 296 297 298 299 300 302 303 304 305 306 307 308
254 258 261 264 265 267 269 270 272 273 274 275 277 278 280 281 282 284 285 285 286 287 288 290 290 291 291 292 293 294 295 296 297 298 299 300 301 303 304 305 307 308 309 309
256 259 262 265 268 270 272 275 275 274 274 276 277 279 280 282 283 284 285 286 287 288 289 290 291 291 291 292 293 294 295 296 297 299 300 302 303 305 306 307 308 309 309 310
256 259 264 268 270 271 274 274 275 276 278 278 279 280 281 282 284 286 287 288 289 289 290 291 291 291 292 292 293 295 296 297 299 300 302 304 305 307 308 309 309 310 310 311
257 261 264 265 267 270 272 274 276 277 279 280 281 282 283 284 286 288 289 289 289 290 290 291 291 292 292 293 294 296 297 299 300 302 304 306 307 308 309 310 310 311 311 311
256 259 262 265 268 270 272 274 276 277 278 280 281 282 284 286 288 289 289 289 289 290 291 291 291 292 293 294 296 297 299 301 302 304 306 307 308 309 310 310 311 311 311 311
257 260 262 265 267 270 272 274 275 277 278 279 281 283 285 287 288 289 289 289 290 291 291 291 292 293 295 296 297 299 301 303 304 306 307 308 309 310 311 311 312 312 312 312
259 261 263 264 266 269 272 274 275 277 278 280 282 284 286 287 288 288 289 289 290 291 291 292 294 295 296 298 300 301 303 305 306 308 309 309 310 311 311 312 312 312 312 312
261 263 264 266 267 269 271 273 275 277 278 280 282 284 286 287 287 288 289 290 291 292 292 293 295 297 298 300 302 303 305 307 308 309 309 310 311 311 312 312 312 312 312 311
261 263 264 266 268 270 272 274 275 277 278 280 282 284 285 286 287 288 289 290 291 292 294 295 297 299 300 302 304 305 307 308 309 310 310 311 311 312 312 312 312 312 311 310
261 263 265 267 269 272 274 275 276 278 279 281 283 284 285 286 287 289 290 291 292 294 295 297 299 300 302 304 305 306 308 309 309 310 311 311 311 312 312 312 312 312 311 309
261 263 266 269 271 273 275 275 277 278 280 282 283 284 285 286 288 289 291 292 294 296 297 299 301 302 304 305 306 307 309 309 310 310 311 311 311 311 311 312 312 312 311 308
262 265 268 270 272 274 275 276 278 279 280 281 282 284 285 287 289 290 292 294 296 298 299 301 302 304 305 306 307 308 309 310 310 310 310 311 311 311 311 312 312 311 310 307
263 266 269 271 272 273 275 277 278 278 280 281 283 285 287 289 290 292 294 296 298 299 301 302 304 305 306 307 308 309 309 310 310 310 310 310 310 311 311 311 311 310 308 306
264 267 268 270 272 274 275 277 278 279 281 283 285 287 289 290 292 294 296 298 299 300 302 303 305 306 307 308 308 309 309 309 309 310 310 310 310 310 310 310 310 308 306 304
264 266 268 270 272 274 275 277 279 281 283 285 287 289 291 292 294 296 298 299 300 302 303 304 305 306 307 308 308 308 308 309 309 309 309 309 309 309 309 309 308 307 305 303
264 266 268 270 272 274 276 278 280 282 284 286 288 290 292 294 296 297 299 300 301 303 304 305 306 307 307 307 308 308 308 308 308 309 309 309 309 309 308 307 307 305 303 302
264 266 268 271 273 275 277 279 281 284 286 288 290 292 294 296 297 299 300 302 303 304 305 306 306 306 307 307 307 307 307 308 308 308 309 309 309 309 308 307 305 303 302 301
265 267 270 272 274 276 278 280 283 285 288 290 292 294 296 297 299 300 301 302 303 304 305 306 306 306 306 306 307 307 307 308 308 308 309 309 309 308 307 305 304 302 301 299
266 269 271 274 276 278 280 283 285 288 290 292 294 296 297 299 300 301 302 303 304 305 305 306 305 306 306 306 306 307 307 307 307 307 308 308 307 306 305 304 302 301 300 299
269 271 274 276 278 280 283 286 288 290 292 294 296 297 299 300 301 302 302 303 304 305 305 305 306 306 306 306 306 307 307 307 306 306 306 306 305 304 303 302 301 300 298 298
271 274 276 278 281 284 286 288 290 292 294 296 297 298 299 300 301 302 303 304 304 305 305 306 306 306 306 306 306 306 306 306 305 305 305 304 303 302 301 301 300 299 298 299
274 277 279 282 285 287 289 291 292 294 296 297 298 299 300 301 302 303 303 304 304 305 305 306 305 306 306 306 306 306 306 305 304 304 303 302 301 300 299 298 298 298 299 300
Height
5708 5709 5712 5715 5717 5719 5720 5722 5723 5725 5725 5726 5724 5722 5722 5722 5721 5720 5719 5717 5715 5712 5710 5707 5704 5701 5697 5694 5690 5687 5683 5679 5676 5671 5667 5663 5658 5653 5647 5642 5635 5629 5622 5615
5700 5702 5703 5705 5708 5711 5713 5714 5715 5716 5717 5718 5715 5714 5713 5711 5711 5709 5708 5706 5704 5701 5699 5696 5693 5689 5686 5682 5678 5675 5671 5667 5663 5659 5654 5649 5644 5638 5633 5626 5620 5613 5606 5598
5691 5694 5694 5697 5702 5703 5705 5706 5706 5706 5709 5707 5706 5705 5704 5702 5700 5699 5697 5695 5693 5690 5687 5684 5681 5677 5674 5670 5666 5662 5659 5654 5650 5645 5640 5635 5630 5624 5617 5611 5604 5597 5589 5580
5682 5684 5685 5694 5694 5695 5696 5697 5698 5697 5698 5697 5696 5695 5694 5692 5690 5688 5686 5684 5681 5678 5675 5672 5669 5665 5661 5658 5654 5650 5646 5641 5636 5631 5626 5621 5615 5609 5602 5595 5588 5580 5571 5562
5672 5673 5676 5682 5684 5685 5686 5688 5689 5688 5688 5686 5686 5684 5683 5682 5679 5677 5675 5672 5670 5667 5663 5660 5657 5653 5649 5645 5642 5637 5633 5628 5623 5617 5612 5606 5600 5593 5586 5579 5571 5562 5553 5543
5663 5664 5666 5674 5675 5675 5676 5677 5680 5678 5676 5675 5675 5674 5673 5670 5668 5666 5663 5661 5658 5655 5651 5648 5645 5641 5637 5633 5629 5625 5620 5615 5609 5603 5598 5591 5585 5577 5569 5561 5553 5544 5535 5524
5653 5654 5657 5662 5663 5664 5666 5668 5667 5666 5665 5665 5664 5663 5661 5659 5656 5654 5652 5649 5646 5642 5639 5636 5632 5629 5625 5621 5616 5611 5607 5601 5595 5589 5583 5576 5569 5561 5553 5544 5535 5526 5517 5507
5644 5644 5650 5654 5653 5654 5655 5655 5654 5653 5653 5653 5652 5650 5649 5647 5645 5642 5640 5637 5634 5630 5627 5624 5620 5616 5612 5608 5603 5598 5593 5588 5582 5575 5568 5560 5552 5544 5535 5525 5516 5506 5496 5487
5636 5639 5641 5641 5642 5643 5643 5643 5642 5642 5642 5641 5640 5638 5637 5635 5633 5630 5628 5625 5621 5618 5615 5611 5607 5603 5599 5594 5589 5584 5579 5573 5567 5560 5552 5544 5535 5526 5517 5506 5495 5486 5475 5466
5626 5628 5630 5631 5631 5632 5632 5632 5631 5631 5631 5630 5628 5627 5625 5623 5621 5618 5615 5612 5609 5606 5602 5598 5594 5590 5585 5581 5576 5570 5565 5558 5551 5544 5536 5528 5518 5508 5498 5487 5475 5465 5454 5444
5616 5618 5619 5620 5621 5621 5621 5621 5620 5620 5619 5618 5617 5615 5613 5611 5608 5606 5603 5600 5596 5593 5589 5585 5581 5577 5572 5567 5562 5556 5550 5543 5536 5527 5519 5510 5501 5491 5479 5468 5454 5443 5434 5423
5606 5609 5610 5610 5611 5611 5610 5610 5609 5609 5608 5607 5605 5603 5601 5598 5596 5593 5590 5587 5584 5580 5576 5572 5568 5563 5558 5553 5547 5541 5535 5527 5519 5511 5502 5492 5483 5474 5463 5450 5438 5425 5414 5404
5596 5597 5598 5599 5600 5600 5599 5599 5598 5597 5596 5595 5593 5591 5589 5586 5583 5580 5578 5575 5571 5568 5564 5559 5555 5550 5544 5539 5532 5526 5518 5510 5502 5493 5483 5473 5463 5453 5445 5437 5423 5410 5399 5388
5585 5586 5587 5587 5588 5588 5588 5587 5586 5585 5584 5582 5581 5578 5576 5573 5571 5568 5565 5562 5559 5555 5551 5546 5542 5536 5530 5524 5517 5510 5502 5493 5484 5475 5465 5454 5444 5433 5423 5414 5407 5399 5387 5374
5574 5575 5576 5576 5576 5576 5576 5575 5574 5573 5572 5570 5568 5566 5564 5561 5559 5556 5553 5550 5546 5542 5538 5533 5528 5522 5515 5509 5502 5494 5485 5476 5466 5457 5446 5435 5425 5415 5405 5395 5387 5379 5372 5363
5563 5564 5564 5565 5565 5565 5564 5563 5563 5561 5560 5558 5556 5554 5552 5550 5547 5544 5541 5537 5534 5529 5524 5519 5514 5507 5500 5493 5485 5477 5468 5458 5447 5437 5427 5417 5407 5397 5388 5379 5370 5362 5355 5347
5552 5553 5554 5554 5554 5554 5553 5552 5551 5550 5548 5547 5545 5543 5541 5538 5536 5532 5529 5525 5521 5516 5510 5505 5499 5492 5484 5476 5468 5459 5450 5440 5429 5419 5408 5398 5389 5380 5371 5362 5354 5347 5340 5333
5542 5543 5543 5543 5543 5543 5542 5541 5540 5539 5537 5536 5534 5532 5530 5527 5524 5520 5517 5512 5508 5503 5496 5489 5483 5476 5467 5458 5449 5440 5431 5421 5411 5400 5391 5381 5372 5363 5354 5346 5339 5332 5327 5321
5532 5532 5533 5533 5533 5532 5531 5531 5530 5528 5527 5525 5523 5521 5518 5515 5512 5508 5504 5499 5494 5489 5482 5474 5467 5459 5450 5440 5430 5421 5411 5401 5392 5383 5373 5364 5356 5347 5339 5332 5325 5319 5314 5309
5522 5523 5523 5523 5522 5522 5521 5520 5519 5518 5516 5514 5512 5509 5506 5503 5499 5495 5491 5486 5479 5472 5466 5459 5450 5441 5431 5422 5412 5402 5392 5383 5374 5365 5356 5348 5340 5332 5325 5318 5312 5306 5302 5298
5513 5513 5513 5513 5513 5512 5511 5510 5509 5507 5505 5503 5501 5498 5494 5490 5486 5481 5476 5471 5464 5455 5449 5440 5431 5422 5412 5403 5393 5384 5374 5365 5356 5348 5340 5332 5325 5318 5311 5305 5300 5295 5291 5288
5503 5503 5503 5503 5503 5502 5501 5500 5498 5496 5494 5491 5488 5485 5481 5477 5472 5467 5460 5453 5447 5439 5430 5422 5412 5402 5392 5383 5375 5366 5357 5348 5340 5332 5324 5317 5311 5305 5299 5294 5289 5285 5281 5278
5493 5494 5494 5493 5493 5492 5490 5489 5487 5485 5482 5479 5475 5471 5466 5462 5456 5450 5445 5437 5428 5420 5411 5402 5392 5382 5373 5364 5356 5348 5339 5332 5324 5317 5311 5304 5298 5292 5287 5283 5279 5275 5272 5269
5484 5484 5484 5483 5482 5481 5479 5477 5475 5472 5469 5465 5461 5455 5450 5445 5440 5432 5424 5417 5409 5400 5392 5383 5373 5363 5354 5346 5338 5331 5324 5317 5310 5304 5298 5292 5286 5281 5277 5273 5269 5266 5263 5261
5474 5474 5473 5472 5471 5470 5468 5465 5462 5459 5455 5451 5445 5439 5433 5427 5421 5414 5406 5398 5389 5380 5372 5363 5354 5345 5337 5329 5322 5316 5309 5302 5296 5290 5285 5280 5275 5271 5267 5263 5260 5257 5255 5253
5464 5463 5462 5461 5459 5457 5455 5452 5448 5444 5439 5435 5430 5423 5416 5408 5401 5394 5386 5378 5370 5361 5353 5345 5337 5329 5321 5315 5308 5301 5295 5289 5283 5278 5273 5268 5264 5261 5257 5254 5252 5249 5247 5245
5452 5451 5450 5448 5446 5443 5440 5436 5432 5428 5422 5417 5412 5405 5397 5390 5382 5374 5366 5359 5351 5343 5335 5328 5321 5313 5307 5300 5294 5287 5281 5276 5271 5266 5262 5258 5254 5251 5249 5246 5244 5242 5240 5237